Location: Cooper Lake State Park
(33.3431°N, 95.6813°W)
Time: 15:36:55
(UTC-05:00)

Hubble Space Telescope - Visible Passes

Search period start: 18 October 2018 00:00
Search period end: 28 October 2018 00:00
Orbit: 537 x 541 km, 28.5° (Epoch: 17 October)

Date Brightness Start Highest point End Pass type
(mag) Time Alt. Az. Time Alt. Az. Time Alt. Az.
18 Oct 1.7 05:55:22 34° SSW 05:56:11 37° S 06:00:00 10° ESE visible
19 Oct 1.5 05:45:39 40° S 05:45:44 40° S 05:49:37 10° ESE visible
20 Oct 1.8 05:35:54 39° SSE 05:35:54 39° SSE 05:39:12 10° ESE visible
21 Oct 2.2 05:26:10 32° SE 05:26:10 32° SE 05:28:46 10° ESE visible
21 Oct 2.1 07:02:07 10° WSW 07:05:44 30° SSW 07:09:23 10° SE visible
22 Oct 2.8 05:16:26 24° SE 05:16:26 24° SE 05:18:19 10° ESE visible
22 Oct 2.2 06:51:48 10° WSW 06:55:16 26° SSW 06:58:45 10° SE visible
23 Oct 3.3 05:06:43 17° ESE 05:06:43 17° ESE 05:07:51 10° ESE visible
23 Oct 2.4 06:42:04 12° WSW 06:44:48 23° SSW 06:48:03 10° SE visible
24 Oct 3.8 04:57:01 12° ESE 04:57:01 12° ESE 04:57:22 10° ESE visible
24 Oct 2.6 06:32:23 14° SW 06:34:19 19° SSW 06:37:17 10° SSE visible
25 Oct 2.7 06:22:43 15° SW 06:23:49 16° SSW 06:26:21 10° SSE visible
26 Oct 3.0 06:13:06 13° SSW 06:13:18 13° SSW 06:15:12 10° S visible
